CUBESAT XI-IV (CO-57) (27848 NORAD) Tracking and Keplerian Element Data

This shows tracking and keplerian element data for the satellite.

Feedback or suggestion? Click here.




ElementValue
Catalog27848
NameCUBESAT XI-IV (CO-57)
Epoch Orbit596
Epoch Day325.01323497
Epoch Year2022
RAAN330.839
Inclination98.6842
Eccentricity0.0010213
Argument of Perigee29.1646
Mean Anonmoly331.01
Mean Motion14.22087501
Decay Rate2.07E-06
L11 27848U 03031J 22325.01323497 .00000207 00000+0 11332-3 0 9990
L22 27848 98.6842 330.8390 0010213 29.1646 331.0100 14.22087501 5967



Live tracking and technical data element details for CUBESAT XI-IV (CO-57) (NORAD 27848). CUBESAT XI-IV (CO-57) can be tracked NOW for your location showing map with azimuth and elevation plus other details from your city location.







IsCatalogInMostPopularTable: catalog: 27848, numindb: 503
Update: records affected: 1



GetName: 27848 CUBESAT XI-IV (CO-57)

Hit Count: updated at: Mon, 28 Nov 2022 04:14:05 GMT